sat.trackr.live / text

‹ back to catalog

UNKNOWN

NORAD 82363

UNKNOWN UNKNOWN UNKNOWN

§ Identity

Operator
Country
Launch date
Launch site
Launch vehicle
Mass (kg)
RCS (m²)

External: N2YO · Heavens-Above

§ Orbital elements

Epoch: 2026-05-23T14:22:38.633664Z

Period
109.44 min
Inclination
66.9365°
Eccentricity
0.0450317
Mean motion
13.15745745 rev/d
Perigee alt
859.7 km
Apogee alt
1,542.3 km
Semi-major
7,579.2 km
B*
-4.5730e-4
RAAN
207.3644°
Arg perigee
61.2620°
Mean anomaly
303.2896°
Rev number
31,155

§ Raw data

UNKNOWN1 82363U          26143.59905826 -.00000351  00000+0 -45730-3 0  99942 82363  66.9365 207.3644 0450317  61.2620 303.2896 13.15745745311550

JSON: /api/v1/satellites/82363 · /tle

For live sub-satellite position, see the globe view (requires WebGL).

§ Visibility from observer

Set your observer location to see the next 7 days of passes ≥ 10°. The values pass through the URL so the page stays shareable.

No JS? Fill the form by hand. The geolocation button needs JavaScript.